QPF
0.00 0.00 0.00 0.00 0.00 0.00 0.00 0.00 0.00 0.00 0.00 0.00 0.00 0.00 0.00 0.00 0.00 0.00 0.00 0.00 0.00 0.00 0.00 0.00 0.00 0.01 0.01 0.01 0.01 0.01 0.01 0.01 0.01 0.01 0.01 0.01 0.00 0.00 0.00 0.00 0.00 0.01 0.01 0.02
0.00 0.00 0.00 0.00 0.00 0.00 0.00 0.00 0.00 0.00 0.00 0.00 0.00 0.00 0.00 0.00 0.00 0.00 0.00 0.00 0.00 0.00 0.00 0.00 0.00 0.01 0.01 0.02 0.01 0.01 0.00 0.01 0.01 0.01 0.01 0.00 0.00 0.01 0.00 0.00 0.00 0.01 0.01 0.01
0.00 0.00 0.00 0.00 0.00 0.00 0.00 0.00 0.00 0.00 0.00 0.00 0.00 0.00 0.01 0.01 0.00 0.00 0.00 0.00 0.00 0.01 0.01 0.01 0.00 0.01 0.01 0.01 0.00 0.00 0.00 0.01 0.00 0.00 0.01 0.01 0.01 0.01 0.01 0.01 0.01 0.01 0.01 0.01
0.00 0.00 0.00 0.00 0.00 0.00 0.00 0.00 0.00 0.00 0.00 0.00 0.00 0.00 0.01 0.01 0.01 0.01 0.01 0.00 0.01 0.01 0.00 0.00 0.00 0.00 0.01 0.01 0.00 0.00 0.01 0.02 0.02 0.02 0.02 0.02 0.02 0.03 0.03 0.02 0.01 0.01 0.01 0.01
0.00 0.00 0.00 0.00 0.00 0.00 0.00 0.00 0.00 0.00 0.00 0.00 0.00 0.01 0.01 0.01 0.01 0.01 0.01 0.01 0.01 0.00 0.00 0.00 0.00 0.00 0.00 0.00 0.00 0.00 0.01 0.02 0.02 0.02 0.02 0.02 0.02 0.03 0.03 0.02 0.02 0.01 0.01 0.01
0.00 0.00 0.00 0.00 0.00 0.00 0.00 0.01 0.00 0.00 0.00 0.01 0.01 0.01 0.01 0.01 0.01 0.01 0.01 0.01 0.01 0.01 0.02 0.02 0.02 0.01 0.00 0.00 0.01 0.01 0.01 0.02 0.02 0.02 0.02 0.01 0.01 0.02 0.02 0.03 0.02 0.02 0.01 0.01
0.00 0.00 0.00 0.00 0.00 0.00 0.01 0.01 0.01 0.00 0.01 0.01 0.02 0.02 0.01 0.00 0.01 0.01 0.02 0.02 0.03 0.03 0.03 0.03 0.02 0.02 0.02 0.03 0.03 0.03 0.03 0.02 0.02 0.02 0.02 0.01 0.02 0.02 0.02 0.02 0.02 0.02 0.02 0.01
0.01 0.01 0.00 0.00 0.01 0.01 0.01 0.00 0.01 0.00 0.00 0.00 0.00 0.00 0.00 0.00 0.00 0.00 0.01 0.02 0.05 0.07 0.06 0.04 0.05 0.04 0.04 0.06 0.06 0.06 0.05 0.04 0.03 0.02 0.01 0.01 0.02 0.02 0.02 0.02 0.01 0.01 0.02 0.03
0.01 0.01 0.01 0.01 0.01 0.01 0.01 0.01 0.01 0.00 0.00 0.00 0.00 0.00 0.00 0.00 0.01 0.01 0.01 0.05 0.10 0.08 0.04 0.04 0.04 0.05 0.05 0.05 0.05 0.05 0.04 0.04 0.03 0.02 0.02 0.02 0.02 0.02 0.02 0.02 0.02 0.03 0.03 0.03
0.01 0.01 0.01 0.02 0.02 0.01 0.02 0.02 0.01 0.01 0.00 0.01 0.01 0.00 0.00 0.00 0.00 0.01 0.01 0.04 0.07 0.05 0.04 0.03 0.02 0.02 0.03 0.04 0.04 0.04 0.03 0.02 0.03 0.03 0.03 0.03 0.03 0.03 0.03 0.03 0.03 0.02 0.03 0.03
0.01 0.02 0.03 0.03 0.04 0.03 0.03 0.03 0.02 0.01 0.01 0.01 0.01 0.01 0.01 0.01 0.01 0.01 0.01 0.02 0.03 0.03 0.02 0.02 0.01 0.01 0.02 0.02 0.04 0.05 0.05 0.05 0.04 0.04 0.05 0.06 0.08 0.08 0.07 0.06 0.05 0.04 0.04 0.03
0.01 0.01 0.02 0.03 0.03 0.04 0.03 0.03 0.02 0.02 0.02 0.02 0.02 0.02 0.02 0.02 0.02 0.02 0.02 0.03 0.03 0.03 0.03 0.02 0.02 0.02 0.01 0.01 0.02 0.03 0.04 0.05 0.05 0.05 0.05 0.05 0.05 0.05 0.05 0.05 0.05 0.05 0.06 0.06
0.00 0.01 0.01 0.01 0.01 0.02 0.02 0.02 0.02 0.02 0.03 0.03 0.04 0.03 0.02 0.02 0.02 0.03 0.04 0.04 0.05 0.05 0.05 0.04 0.03 0.03 0.02 0.02 0.02 0.02 0.02 0.03 0.03 0.03 0.03 0.03 0.03 0.03 0.04 0.04 0.05 0.05 0.05 0.06
0.00 0.00 0.01 0.01 0.02 0.02 0.02 0.02 0.03 0.03 0.03 0.02 0.03 0.03 0.03 0.03 0.03 0.03 0.04 0.04 0.05 0.05 0.04 0.04 0.04 0.03 0.02 0.02 0.02 0.02 0.02 0.02 0.03 0.03 0.03 0.03 0.04 0.04 0.04 0.03 0.04 0.04 0.05 0.05
0.00 0.01 0.01 0.02 0.02 0.02 0.02 0.02 0.03 0.02 0.02 0.03 0.03 0.02 0.02 0.03 0.04 0.03 0.04 0.04 0.04 0.04 0.04 0.03 0.03 0.03 0.03 0.03 0.03 0.03 0.03 0.02 0.02 0.03 0.04 0.04 0.04 0.04 0.04 0.03 0.03 0.02 0.02 0.03
0.01 0.01 0.02 0.02 0.02 0.02 0.02 0.02 0.02 0.02 0.01 0.01 0.02 0.02 0.02 0.03 0.05 0.05 0.04 0.04 0.03 0.03 0.02 0.02 0.02 0.02 0.03 0.03 0.04 0.04 0.04 0.04 0.03 0.03 0.03 0.03 0.03 0.03 0.03 0.03 0.03 0.02 0.01 0.01
0.01 0.01 0.02 0.04 0.03 0.02 0.02 0.01 0.01 0.01 0.01 0.02 0.03 0.03 0.04 0.05 0.04 0.05 0.05 0.04 0.03 0.03 0.02 0.02 0.02 0.02 0.03 0.03 0.04 0.05 0.04 0.04 0.05 0.04 0.03 0.03 0.03 0.03 0.03 0.03 0.02 0.02 0.02 0.01
0.02 0.02 0.02 0.03 0.03 0.03 0.02 0.01 0.01 0.01 0.02 0.06 0.07 0.05 0.05 0.05 0.04 0.04 0.05 0.05 0.04 0.03 0.03 0.02 0.03 0.02 0.03 0.04 0.04 0.05 0.04 0.04 0.05 0.05 0.04 0.04 0.04 0.03 0.02 0.02 0.02 0.01 0.01 0.01
0.01 0.02 0.02 0.02 0.02 0.02 0.02 0.02 0.01 0.01 0.01 0.02 0.03 0.05 0.06 0.06 0.05 0.06 0.06 0.05 0.04 0.03 0.02 0.02 0.03 0.03 0.03 0.04 0.05 0.04 0.05 0.05 0.05 0.04 0.03 0.02 0.02 0.02 0.01 0.01 0.01 0.01 0.01 0.00
0.02 0.03 0.03 0.04 0.04 0.03 0.02 0.01 0.01 0.01 0.02 0.02 0.03 0.04 0.07 0.09 0.08 0.07 0.07 0.06 0.05 0.04 0.03 0.02 0.03 0.05 0.04 0.05 0.07 0.06 0.04 0.04 0.04 0.03 0.03 0.02 0.02 0.02 0.02 0.02 0.02 0.01 0.01 0.01
0.01 0.01 0.01 0.02 0.03 0.03 0.03 0.01 0.01 0.01 0.01 0.02 0.03 0.03 0.05 0.07 0.09 0.07 0.06 0.05 0.06 0.06 0.04 0.03 0.04 0.06 0.05 0.06 0.07 0.07 0.06 0.04 0.03 0.03 0.03 0.03 0.03 0.03 0.03 0.03 0.02 0.02 0.02 0.01
0.01 0.01 0.01 0.01 0.01 0.02 0.02 0.01 0.01 0.01 0.01 0.01 0.02 0.02 0.03 0.04 0.06 0.07 0.05 0.05 0.06 0.10 0.05 0.04 0.03 0.05 0.05 0.06 0.05 0.05 0.06 0.06 0.05 0.04 0.03 0.03 0.03 0.04 0.03 0.03 0.03 0.02 0.02 0.02
0.01 0.01 0.01 0.01 0.01 0.02 0.02 0.02 0.02 0.02 0.02 0.02 0.02 0.02 0.01 0.01 0.02 0.04 0.04 0.03 0.04 0.07 0.05 0.04 0.04 0.04 0.05 0.05 0.05 0.04 0.04 0.04 0.05 0.04 0.04 0.04 0.04 0.05 0.05 0.04 0.03 0.02 0.02 0.02
0.01 0.01 0.01 0.01 0.01 0.02 0.03 0.03 0.03 0.03 0.02 0.02 0.03 0.02 0.02 0.01 0.01 0.01 0.02 0.02 0.02 0.02 0.02 0.03 0.03 0.03 0.03 0.03 0.03 0.03 0.03 0.03 0.03 0.03 0.04 0.05 0.05 0.04 0.03 0.02 0.02 0.02 0.02 0.01
0.01 0.01 0.01 0.02 0.02 0.02 0.03 0.03 0.04 0.04 0.03 0.02 0.02 0.02 0.02 0.01 0.01 0.01 0.01 0.01 0.01 0.01 0.01 0.01 0.02 0.03 0.03 0.02 0.02 0.03 0.03 0.03 0.03 0.02 0.02 0.02 0.02 0.02 0.02 0.02 0.02 0.02 0.01 0.01
0.02 0.02 0.02 0.02 0.02 0.02 0.02 0.03 0.04 0.05 0.05 0.04 0.02 0.01 0.01 0.01 0.01 0.01 0.01 0.01 0.01 0.01 0.00 0.01 0.01 0.01 0.01 0.01 0.02 0.02 0.02 0.02 0.03 0.03 0.02 0.02 0.03 0.02 0.02 0.02 0.01 0.01 0.01 0.01
0.02 0.02 0.02 0.02 0.02 0.02 0.02 0.02 0.04 0.05 0.06 0.05 0.03 0.02 0.01 0.01 0.01 0.01 0.01 0.01 0.01 0.01 0.01 0.01 0.01 0.01 0.01 0.01 0.01 0.01 0.01 0.01 0.02 0.02 0.03 0.03 0.03 0.02 0.02 0.02 0.02 0.02 0.01 0.01
MSLP
1006.89 1006.84 1006.82 1006.84 1006.90 1006.97 1007.03 1007.02 1006.93 1006.74 1006.46 1006.09 1005.69 1005.28 1004.91 1004.61 1004.39 1004.26 1004.19 1004.17 1004.17 1004.18 1004.18 1004.19 1004.22 1004.31 1004.47 1004.75 1005.13 1005.62 1006.18 1006.78 1007.40 1007.98 1008.51 1008.96 1009.34 1009.68 1009.98 1010.28 1010.61 1010.97 1011.37 1011.80
1007.50 1007.36 1007.20 1007.05 1006.91 1006.80 1006.69 1006.58 1006.46 1006.30 1006.11 1005.91 1005.68 1005.47 1005.28 1005.12 1004.99 1004.89 1004.79 1004.70 1004.59 1004.46 1004.32 1004.18 1004.08 1004.03 1004.07 1004.21 1004.47 1004.84 1005.29 1005.80 1006.34 1006.87 1007.37 1007.82 1008.23 1008.61 1008.97 1009.33 1009.71 1010.11 1010.55 1011.00
1008.02 1007.81 1007.55 1007.27 1006.99 1006.74 1006.51 1006.33 1006.19 1006.07 1005.98 1005.91 1005.85 1005.80 1005.76 1005.71 1005.64 1005.55 1005.43 1005.26 1005.05 1004.80 1004.52 1004.26 1004.02 1003.84 1003.74 1003.76 1003.89 1004.12 1004.45 1004.84 1005.28 1005.73 1006.18 1006.63 1007.05 1007.47 1007.88 1008.30 1008.73 1009.18 1009.64 1010.11
1008.39 1008.15 1007.83 1007.48 1007.12 1006.78 1006.50 1006.29 1006.15 1006.09 1006.09 1006.13 1006.19 1006.26 1006.31 1006.33 1006.30 1006.20 1006.03 1005.79 1005.48 1005.13 1004.75 1004.37 1004.02 1003.73 1003.52 1003.40 1003.39 1003.49 1003.67 1003.93 1004.25 1004.61 1005.00 1005.41 1005.83 1006.26 1006.71 1007.17 1007.64 1008.11 1008.60 1009.07
1008.57 1008.34 1008.01 1007.64 1007.27 1006.92 1006.64 1006.44 1006.34 1006.33 1006.40 1006.52 1006.67 1006.81 1006.91 1006.95 1006.91 1006.78 1006.56 1006.25 1005.86 1005.43 1004.96 1004.50 1004.07 1003.68 1003.37 1003.14 1003.00 1002.95 1002.99 1003.11 1003.29 1003.54 1003.84 1004.18 1004.57 1004.99 1005.45 1005.92 1006.41 1006.90 1007.39 1007.86
1008.56 1008.36 1008.08 1007.75 1007.41 1007.11 1006.88 1006.74 1006.69 1006.74 1006.86 1007.03 1007.22 1007.38 1007.48 1007.51 1007.44 1007.26 1006.97 1006.60 1006.15 1005.66 1005.14 1004.63 1004.14 1003.69 1003.30 1002.97 1002.72 1002.53 1002.42 1002.39 1002.42 1002.54 1002.72 1002.98 1003.30 1003.68 1004.11 1004.57 1005.05 1005.54 1006.02 1006.48
1008.39 1008.24 1008.03 1007.78 1007.53 1007.32 1007.17 1007.11 1007.13 1007.23 1007.39 1007.58 1007.76 1007.90 1007.97 1007.95 1007.82 1007.58 1007.24 1006.82 1006.33 1005.81 1005.27 1004.73 1004.22 1003.73 1003.28 1002.88 1002.52 1002.21 1001.96 1001.77 1001.65 1001.62 1001.67 1001.81 1002.03 1002.34 1002.72 1003.14 1003.59 1004.06 1004.53 1004.99
1008.10 1008.01 1007.89 1007.75 1007.61 1007.51 1007.47 1007.48 1007.56 1007.70 1007.87 1008.05 1008.20 1008.29 1008.30 1008.21 1008.01 1007.71 1007.32 1006.87 1006.36 1005.84 1005.31 1004.78 1004.27 1003.77 1003.29 1002.83 1002.39 1001.97 1001.58 1001.25 1000.97 1000.78 1000.68 1000.69 1000.80 1001.01 1001.31 1001.68 1002.09 1002.54 1003.01 1003.48
1007.77 1007.75 1007.71 1007.67 1007.65 1007.66 1007.70 1007.79 1007.92 1008.07 1008.23 1008.36 1008.45 1008.47 1008.39 1008.22 1007.96 1007.61 1007.19 1006.73 1006.24 1005.74 1005.24 1004.74 1004.26 1003.77 1003.28 1002.78 1002.27 1001.76 1001.26 1000.78 1000.36 1000.02 999.77 999.64 999.63 999.74 999.95 1000.26 1000.64 1001.07 1001.54 1002.04
1007.47 1007.49 1007.52 1007.57 1007.63 1007.72 1007.84 1007.97 1008.11 1008.25 1008.36 1008.43 1008.44 1008.36 1008.20 1007.96 1007.64 1007.26 1006.83 1006.38 1005.92 1005.47 1005.02 1004.58 1004.14 1003.68 1003.19 1002.67 1002.11 1001.53 1000.93 1000.34 999.80 999.33 998.95 998.70 998.58 998.59 998.73 998.98 999.33 999.76 1000.25 1000.78
1007.22 1007.27 1007.34 1007.44 1007.56 1007.70 1007.83 1007.97 1008.09 1008.17 1008.22 1008.20 1008.11 1007.95 1007.71 1007.40 1007.04 1006.64 1006.22 1005.81 1005.40 1005.01 1004.63 1004.25 1003.86 1003.44 1002.97 1002.45 1001.87 1001.24 1000.58 999.91 999.28 998.71 998.24 997.89 997.69 997.63 997.72 997.94 998.27 998.70 999.21 999.79
1007.05 1007.09 1007.17 1007.29 1007.42 1007.55 1007.66 1007.76 1007.82 1007.83 1007.78 1007.67 1007.48 1007.23 1006.92 1006.57 1006.18 1005.78 1005.39 1005.02 1004.67 1004.35 1004.04 1003.73 1003.39 1003.02 1002.58 1002.07 1001.49 1000.84 1000.16 999.46 998.79 998.17 997.66 997.27 997.02 996.93 996.99 997.19 997.52 997.96 998.50 999.12
1006.89 1006.91 1006.98 1007.07 1007.17 1007.26 1007.33 1007.35 1007.32 1007.24 1007.09 1006.88 1006.61 1006.28 1005.91 1005.53 1005.13 1004.75 1004.39 1004.07 1003.78 1003.52 1003.27 1003.02 1002.73 1002.40 1002.00 1001.52 1000.96 1000.34 999.67 998.98 998.32 997.72 997.21 996.83 996.59 996.50 996.56 996.77 997.10 997.55 998.11 998.74
1006.68 1006.67 1006.70 1006.75 1006.80 1006.83 1006.82 1006.75 1006.64 1006.45 1006.21 1005.91 1005.56 1005.18 1004.78 1004.38 1003.98 1003.62 1003.30 1003.01 1002.77 1002.56 1002.35 1002.14 1001.90 1001.60 1001.24 1000.80 1000.29 999.71 999.10 998.48 997.88 997.34 996.89 996.57 996.37 996.32 996.41 996.64 996.99 997.44 997.98 998.60
1006.36 1006.32 1006.30 1006.30 1006.29 1006.25 1006.16 1006.01 1005.81 1005.55 1005.23 1004.87 1004.47 1004.05 1003.63 1003.22 1002.84 1002.49 1002.19 1001.93 1001.71 1001.52 1001.34 1001.15 1000.92 1000.65 1000.33 999.93 999.48 998.98 998.46 997.93 997.44 997.01 996.66 996.43 996.32 996.34 996.48 996.73 997.08 997.52 998.03 998.60
1005.88 1005.81 1005.76 1005.71 1005.64 1005.54 1005.39 1005.18 1004.92 1004.61 1004.24 1003.84 1003.42 1002.99 1002.57 1002.16 1001.78 1001.45 1001.15 1000.90 1000.68 1000.48 1000.28 1000.08 999.86 999.60 999.30 998.95 998.57 998.16 997.74 997.34 996.97 996.68 996.47 996.35 996.34 996.44 996.63 996.91 997.27 997.68 998.13 998.62
1005.23 1005.14 1005.07 1004.99 1004.89 1004.75 1004.56 1004.33 1004.04 1003.70 1003.33 1002.92 1002.51 1002.08 1001.67 1001.27 1000.90 1000.56 1000.25 999.97 999.72 999.48 999.25 999.01 998.77 998.50 998.21 997.90 997.58 997.25 996.94 996.66 996.44 996.28 996.20 996.22 996.31 996.49 996.74 997.04 997.39 997.76 998.15 998.54
1004.45 1004.36 1004.28 1004.19 1004.07 1003.92 1003.73 1003.49 1003.21 1002.89 1002.53 1002.16 1001.77 1001.37 1000.97 1000.58 1000.20 999.84 999.50 999.17 998.86 998.56 998.27 997.98 997.68 997.39 997.09 996.80 996.53 996.27 996.06 995.89 995.79 995.76 995.80 995.92 996.11 996.36 996.65 996.97 997.30 997.63 997.96 998.26
1003.63 1003.54 1003.46 1003.37 1003.26 1003.11 1002.93 1002.72 1002.47 1002.19 1001.88 1001.55 1001.20 1000.83 1000.46 1000.07 999.68 999.29 998.90 998.51 998.12 997.74 997.37 997.00 996.65 996.31 996.00 995.71 995.46 995.25 995.10 995.01 995.00 995.06 995.19 995.39 995.64 995.94 996.26 996.59 996.91 997.22 997.49 997.73
1002.86 1002.78 1002.70 1002.60 1002.49 1002.36 1002.21 1002.02 1001.82 1001.59 1001.33 1001.05 1000.75 1000.42 1000.06 999.68 999.28 998.85 998.41 997.95 997.48 997.02 996.56 996.12 995.70 995.31 994.96 994.65 994.40 994.21 994.09 994.04 994.07 994.18 994.36 994.60 994.89 995.21 995.55 995.88 996.20 996.49 996.74 996.95
1002.24 1002.14 1002.04 1001.94 1001.82 1001.70 1001.55 1001.40 1001.23 1001.05 1000.84 1000.61 1000.35 1000.06 999.72 999.34 998.92 998.46 997.97 997.45 996.92 996.38 995.85 995.34 994.86 994.42 994.03 993.69 993.42 993.22 993.09 993.04 993.07 993.18 993.37 993.61 993.90 994.22 994.57 994.90 995.22 995.52 995.77 995.99
1001.80 1001.67 1001.53 1001.39 1001.25 1001.11 1000.97 1000.83 1000.68 1000.53 1000.36 1000.17 999.95 999.68 999.36 998.98 998.56 998.08 997.55 996.99 996.42 995.83 995.25 994.69 994.17 993.68 993.25 992.88 992.58 992.34 992.18 992.10 992.10 992.17 992.32 992.53 992.80 993.11 993.44 993.78 994.11 994.43 994.71 994.97
1001.54 1001.35 1001.15 1000.96 1000.77 1000.59 1000.42 1000.27 1000.14 1000.00 999.86 999.69 999.49 999.25 998.95 998.58 998.16 997.67 997.14 996.57 995.98 995.37 994.78 994.20 993.66 993.15 992.69 992.29 991.95 991.67 991.47 991.33 991.27 991.28 991.37 991.53 991.76 992.03 992.34 992.68 993.04 993.39 993.73 994.06
1001.40 1001.13 1000.86 1000.59 1000.33 1000.10 999.90 999.72 999.58 999.44 999.31 999.16 998.98 998.76 998.48 998.14 997.73 997.27 996.75 996.20 995.62 995.04 994.46 993.89 993.36 992.86 992.39 991.98 991.61 991.30 991.04 990.84 990.72 990.66 990.68 990.78 990.95 991.18 991.48 991.82 992.19 992.59 992.99 993.39
1001.30 1000.94 1000.58 1000.23 999.91 999.62 999.38 999.18 999.01 998.88 998.75 998.61 998.45 998.25 998.00 997.68 997.31 996.89 996.41 995.91 995.38 994.84 994.31 993.79 993.30 992.83 992.39 991.98 991.60 991.27 990.97 990.72 990.54 990.42 990.37 990.41 990.53 990.73 991.00 991.34 991.73 992.17 992.62 993.10
1001.12 1000.69 1000.26 999.84 999.47 999.14 998.86 998.64 998.47 998.34 998.21 998.09 997.95 997.77 997.55 997.28 996.95 996.58 996.16 995.72 995.27 994.81 994.35 993.91 993.48 993.06 992.67 992.29 991.93 991.59 991.28 991.01 990.78 990.62 990.52 990.51 990.59 990.76 991.02 991.36 991.77 992.23 992.73 993.26
1000.81 1000.33 999.85 999.40 999.00 998.66 998.38 998.16 997.99 997.86 997.76 997.65 997.53 997.39 997.20 996.96 996.69 996.37 996.03 995.66 995.29 994.92 994.55 994.20 993.85 993.52 993.19 992.87 992.55 992.24 991.95 991.67 991.44 991.26 991.15 991.11 991.17 991.32 991.57 991.90 992.32 992.79 993.32 993.89
Thickness
5771 5778 5779 5778 5779 5783 5784 5789 5787 5795 5801 5809 5816 5817 5819 5820 5822 5823 5821 5820 5819 5816 5813 5811 5809 5806 5803 5800 5797 5792 5786 5781 5777 5774 5770 5767 5763 5760 5757 5754 5751 5748 5745 5742
5756 5767 5769 5767 5775 5779 5782 5786 5788 5793 5796 5813 5815 5816 5812 5813 5815 5815 5816 5817 5816 5814 5810 5808 5806 5803 5800 5797 5793 5789 5784 5779 5776 5772 5768 5764 5761 5758 5754 5751 5748 5744 5741 5739
5744 5756 5754 5751 5770 5775 5778 5784 5785 5782 5792 5803 5801 5803 5804 5808 5810 5811 5812 5812 5812 5811 5808 5806 5804 5802 5797 5794 5791 5786 5782 5778 5774 5770 5766 5762 5759 5755 5751 5747 5744 5740 5737 5734
5739 5737 5721 5760 5783 5780 5775 5779 5787 5789 5793 5796 5797 5801 5805 5806 5805 5806 5807 5807 5807 5806 5805 5804 5802 5799 5795 5792 5787 5783 5779 5775 5772 5768 5763 5759 5756 5751 5748 5744 5740 5737 5733 5730
5731 5727 5735 5755 5767 5771 5766 5767 5781 5782 5786 5789 5793 5793 5795 5802 5803 5802 5803 5804 5803 5803 5802 5800 5797 5795 5790 5786 5783 5779 5775 5771 5768 5764 5760 5756 5752 5748 5744 5740 5736 5732 5729 5725
5722 5717 5720 5748 5765 5771 5762 5752 5774 5777 5777 5779 5781 5776 5786 5795 5797 5797 5798 5798 5797 5797 5795 5792 5791 5789 5784 5781 5777 5774 5771 5768 5765 5761 5756 5752 5748 5744 5740 5736 5732 5728 5723 5720
5715 5716 5733 5752 5758 5756 5736 5747 5766 5770 5771 5772 5773 5778 5785 5788 5789 5789 5789 5790 5790 5788 5786 5785 5785 5782 5777 5775 5771 5769 5766 5762 5759 5755 5751 5747 5743 5739 5734 5730 5726 5722 5718 5714
5711 5708 5722 5743 5745 5741 5742 5752 5758 5761 5764 5765 5769 5773 5777 5777 5778 5779 5779 5780 5780 5778 5776 5776 5776 5774 5770 5767 5766 5763 5758 5754 5751 5748 5746 5741 5736 5732 5729 5724 5719 5715 5711 5708
5714 5718 5725 5734 5735 5737 5742 5743 5748 5753 5756 5759 5760 5763 5766 5767 5768 5769 5770 5770 5771 5770 5768 5767 5767 5766 5762 5760 5758 5755 5751 5747 5742 5740 5737 5733 5728 5724 5721 5718 5716 5712 5707 5704
5700 5711 5717 5721 5725 5730 5734 5736 5741 5747 5750 5753 5753 5755 5756 5757 5758 5758 5759 5760 5761 5761 5759 5757 5758 5757 5755 5753 5750 5746 5742 5739 5735 5731 5728 5725 5721 5719 5716 5712 5709 5706 5702 5698
5689 5698 5704 5709 5715 5721 5725 5730 5734 5739 5743 5746 5746 5746 5747 5747 5748 5749 5750 5751 5751 5750 5749 5748 5748 5747 5746 5744 5741 5737 5733 5730 5727 5725 5722 5717 5713 5710 5708 5703 5701 5698 5697 5693
5685 5693 5696 5699 5706 5712 5715 5718 5725 5728 5731 5736 5737 5737 5738 5738 5739 5740 5740 5740 5740 5739 5738 5738 5738 5737 5736 5735 5732 5728 5724 5721 5719 5717 5714 5711 5705 5699 5691 5691 5686 5684 5683 5681
5679 5686 5690 5694 5698 5703 5707 5711 5716 5719 5721 5723 5726 5727 5727 5728 5730 5730 5730 5730 5730 5730 5729 5729 5728 5727 5727 5726 5723 5720 5717 5714 5712 5709 5706 5703 5699 5695 5689 5680 5675 5672 5670 5667
5672 5675 5678 5684 5689 5694 5698 5703 5707 5709 5712 5714 5715 5716 5717 5718 5720 5720 5721 5722 5722 5721 5721 5720 5719 5717 5717 5717 5714 5711 5709 5705 5703 5700 5699 5697 5693 5689 5685 5679 5673 5668 5661 5656
5665 5669 5672 5677 5680 5684 5689 5693 5695 5698 5701 5702 5704 5706 5707 5708 5709 5710 5712 5714 5713 5712 5711 5711 5710 5708 5707 5707 5705 5702 5701 5698 5694 5693 5691 5688 5685 5681 5678 5673 5669 5664 5658 5650
5658 5662 5665 5668 5671 5675 5680 5683 5686 5688 5691 5691 5693 5695 5697 5699 5700 5701 5703 5704 5702 5702 5702 5702 5701 5700 5699 5697 5695 5693 5691 5687 5684 5684 5683 5680 5676 5673 5670 5665 5661 5657 5654 5648
5649 5652 5656 5659 5663 5667 5671 5675 5678 5680 5682 5682 5684 5686 5687 5688 5689 5691 5692 5694 5694 5694 5694 5693 5692 5692 5691 5689 5688 5687 5684 5680 5675 5675 5674 5672 5669 5665 5661 5658 5654 5651 5647 5642
5645 5649 5652 5654 5657 5659 5662 5666 5669 5671 5672 5674 5675 5676 5677 5678 5679 5681 5683 5684 5684 5684 5685 5685 5684 5683 5682 5681 5679 5679 5676 5673 5670 5668 5666 5663 5660 5657 5655 5651 5648 5644 5639 5633
5639 5642 5645 5647 5650 5653 5655 5657 5660 5662 5664 5664 5665 5667 5668 5670 5672 5673 5674 5674 5673 5673 5674 5676 5673 5673 5673 5671 5670 5668 5667 5665 5662 5660 5657 5652 5650 5649 5647 5644 5641 5637 5633 5629
5632 5635 5638 5640 5642 5645 5647 5650 5652 5654 5655 5656 5657 5658 5659 5661 5663 5664 5664 5664 5667 5668 5667 5666 5664 5664 5662 5661 5659 5659 5658 5656 5654 5652 5649 5646 5643 5641 5638 5636 5633 5629 5626 5622
5624 5628 5630 5633 5634 5637 5639 5641 5643 5644 5645 5647 5648 5649 5651 5652 5654 5655 5655 5657 5658 5658 5657 5654 5655 5654 5653 5651 5648 5650 5649 5648 5647 5644 5640 5638 5635 5632 5630 5628 5625 5621 5618 5614
5617 5620 5623 5626 5627 5629 5632 5634 5635 5636 5637 5639 5640 5641 5642 5642 5644 5645 5647 5648 5649 5646 5647 5647 5648 5646 5644 5641 5642 5642 5641 5640 5638 5636 5633 5630 5627 5625 5623 5620 5617 5614 5611 5607
5611 5613 5616 5618 5621 5622 5624 5626 5627 5628 5629 5630 5631 5632 5634 5635 5638 5638 5638 5639 5639 5637 5638 5639 5637 5633 5631 5633 5634 5634 5634 5632 5630 5628 5627 5624 5621 5619 5616 5614 5611 5608 5604 5600
5605 5608 5610 5613 5615 5615 5616 5619 5620 5621 5622 5623 5624 5625 5626 5628 5630 5633 5633 5630 5629 5628 5630 5628 5624 5623 5621 5627 5627 5627 5627 5625 5623 5621 5620 5617 5615 5613 5611 5608 5605 5601 5597 5594
5600 5602 5604 5605 5607 5609 5611 5612 5613 5614 5616 5618 5619 5620 5622 5623 5624 5625 5624 5623 5621 5621 5622 5619 5616 5614 5617 5620 5620 5620 5620 5620 5618 5615 5612 5611 5609 5607 5604 5601 5599 5595 5591 5588
5595 5597 5599 5600 5602 5603 5606 5608 5609 5610 5611 5612 5613 5614 5616 5617 5617 5617 5616 5616 5616 5614 5615 5614 5611 5609 5613 5614 5614 5614 5614 5611 5609 5607 5607 5604 5602 5600 5598 5596 5592 5589 5586 5582
5592 5593 5594 5596 5598 5599 5601 5602 5603 5604 5604 5605 5605 5607 5608 5609 5609 5610 5610 5610 5610 5610 5610 5609 5608 5608 5608 5608 5607 5606 5606 5604 5602 5601 5600 5599 5597 5595 5593 5589 5587 5583 5579 5576